TimeCST,TemperatureF,Dew PointF,Humidity,Sea Level PressureIn,VisibilityMPH,Wind Direction,Wind SpeedMPH,Gust SpeedMPH,PrecipitationIn,Events,Conditions,WindDirDegrees,DateUTC
12:00 AM,68,63,79,29.84,12,SE,5.8,,,,Scattered Clouds,130,2012-11-03 06:00:00
12:00 AM,68.0,62.6,83,29.98,6.2,SE,5.8,-,N/A,,Scattered Clouds,130,2012-11-03 06:00:00
1:00 AM,68.0,62.6,83,29.97,6.2,NNE,4.6,-,N/A,,Scattered Clouds,30,2012-11-03 07:00:00
2:00 AM,68.0,62.6,83,29.98,6.2,ESE,2.3,-,N/A,,Scattered Clouds,120,2012-11-03 08:00:00
3:00 AM,66,62,83,29.82,12,ENE,5.8,,,,Scattered Clouds,60,2012-11-03 09:00:00
3:00 AM,66.2,62.6,88,29.96,6.2,ENE,5.8,-,N/A,,Partly Cloudy,60,2012-11-03 09:00:00
4:00 AM,66.2,60.8,83,29.97,6.2,NE,5.8,-,N/A,,Partly Cloudy,50,2012-11-03 10:00:00
6:00 AM,67,61,75,29.90,12,East,5.8,,,,Scattered Clouds,80,2012-11-03 12:00:00
6:00 AM,66.2,60.8,83,30.01,6.2,East,5.8,-,N/A,,Mostly Cloudy,80,2012-11-03 12:00:00
7:00 AM,69.8,62.6,78,30.03,6.2,ENE,8.1,-,N/A,,Mostly Cloudy,70,2012-11-03 13:00:00
8:00 AM,73.4,62.6,69,30.05,6.2,NE,8.1,-,N/A,,Mostly Cloudy,50,2012-11-03 14:00:00
8:45 AM,73.4,64.4,73,30.08,6.2,SW,6.9,-,N/A,,Scattered Clouds,230,2012-11-03 14:45:00
9:00 AM,73.4,64.4,73,30.08,6.2,WSW,6.9,-,N/A,,Mostly Cloudy,250,2012-11-03 15:00:00
10:00 AM,77.0,64.4,65,30.07,6.2,West,5.8,-,N/A,,Mostly Cloudy,260,2012-11-03 16:00:00
11:00 AM,77.0,66.2,69,30.05,6.2,WSW,6.9,-,N/A,,Mostly Cloudy,240,2012-11-03 17:00:00
12:00 PM,78,65,56,29.87,12,West,5.8,,,,Scattered Clouds,260,2012-11-03 18:00:00
12:00 PM,78.8,64.4,61,30.02,6.2,West,5.8,-,N/A,,Mostly Cloudy,260,2012-11-03 18:00:00
1:00 PM,78.8,64.4,61,29.98,6.2,West,2.3,-,N/A,,Mostly Cloudy,270,2012-11-03 19:00:00
2:00 PM,77.0,64.4,65,29.95,6.2,WNW,4.6,-,N/A,,Mostly Cloudy,290,2012-11-03 20:00:00
3:00 PM,73,66,74,29.81,6,ENE,4.6,,,Rain,Heavy Rain,70,2012-11-03 21:00:00
3:00 PM,73.4,66.2,78,29.96,6.2,ENE,4.6,-,N/A,Rain,Heavy Rain,70,2012-11-03 21:00:00
3:05 PM,73.4,68.0,83,29.97,6.2,NE,4.6,-,N/A,Rain-Thunderstorm,Light Thunderstorms and Rain,50,2012-11-03 21:05:00
4:00 PM,69.8,66.2,88,29.98,6.2,SE,2.3,-,N/A,Rain,Light Rain,140,2012-11-03 22:00:00
5:00 PM,69.8,66.2,88,29.99,6.2,ENE,4.6,-,N/A,Fog,Patches of Fog,70,2012-11-03 23:00:00
6:00 PM,71,65,74,29.87,12,ENE,5.8,,,,Clear,70,2012-11-04 00:00:00
6:00 PM,71.6,64.4,78,29.98,-9999.0,ENE,5.8,-,N/A,,Clear,70,2012-11-04 00:00:00
7:00 PM,71.6,64.4,78,29.99,-9999.0,ENE,6.9,-,N/A,,Clear,70,2012-11-04 01:00:00
8:00 PM,69.8,66.2,88,30.01,6.2,Calm,Calm,-,N/A,Rain,Light Rain,0,2012-11-04 02:00:00
9:00 PM,69,66,86,29.87,12,East,2.3,,,Rain,Light Drizzle,90,2012-11-04 03:00:00
9:00 PM,68.0,66.2,94,30.02,6.2,East,2.3,-,N/A,,Light Drizzle,90,2012-11-04 03:00:00
10:00 PM,68.0,66.2,94,30.02,6.2,ENE,1.2,-,N/A,,Mostly Cloudy,60,2012-11-04 04:00:00
11:00 PM,68.0,62.6,83,30.00,-9999.0,ENE,3.5,-,N/A,,Clear,70,2012-11-04 05:00:00